www.pogodaiklimat.ru

Погода и климат >> Архив погоды >> Сенегал >> Podor


ПОГОДА в Podor

  • Прогноз погоды в Podor
  • Монитор погоды в Podor
  • Климат города

АРХИВ ПОГОДЫ в Podor

Время (UTC), дата Ветер
(напр.,м/с)
 
Видим.   Явления Облачность Т
(С)
Тd
(С)
f
(%)
Тe
(С)
Тes
(С)
Комфортность P
(гПа)
Po
(гПа)
Тmin
(С)
Tmax
(С)
R
(мм)
R24
(мм)
S
(см)
00 12.12 С 1 10 км ясно +20.5 +5.4 37 +23 +23 комфорт 1013.0 1012.2
03 12.12 С 1 10 км ясно +17.9 +3.0 37 +19 +19 1012.3 1011.5
06 12.12 С 1 10 км ясно +15.0 +1.2 39 +16 +16 1012.5 1011.7 +14.5
09 12.12 С 1 10 км ясно +17.0 +4.0 42 +18 +21 1014.3 1013.5
12 12.12 СВ 1 10 км ясно +27.0 +2.8 21 +25 +40 комфорт 1014.3 1013.5
15 12.12 СВ 1 10 км ясно +30.2 -1.5 13 +27 +38 жарко 1011.9 1011.1
18 12.12 С 1 10 км ясно +27.4 -0.7 16 +25 +25 комфорт 1011.0 1010.2 +32.0
21 12.12 С 1 10 км ясно +22.4 -2.7 19 +21 +21 комфорт 1013.2 1012.4
00 13.12 СЗ 1 10 км ясно +19.5 +0.5 28 +21 +21 комфорт 1014.3 1013.5
03 13.12 СВ 2 10 км ясно +17.0 +4.3 43 +17 +17 1013.8 1013.0
06 13.12 СВ 1 10 км ясно +15.9 +5.2 49 +17 +17 1014.4 1013.6 +15.5
09 13.12 СВ 3 10 км ясно +18.0 +5.8 45 +18 +20 1015.3 1014.5
12 13.12 СВ 3 6000 м ясно +24.8 +6.9 32 +25 +36 комфорт 1015.7 1014.9
15 13.12 СВ 3 6000 м ясно +26.5 +7.5 30 +26 +34 жарко 1013.5 1012.8
18 13.12 С 2 8000 м ясно +24.6 +4.8 28 +24 +24 комфорт 1012.9 1012.1 +27.0
21 13.12 С 2 10 км ясно +20.6 +2.2 30 +22 +22 комфорт 1015.3 1014.5
00 14.12 С 1 10 км ясно +18.0 +1.3 33 +19 +19 1016.3 1015.5
03 14.12 С 1 10 км ясно +16.0 -0.2 33 +17 +17 1015.4 1014.6
09 14.12 СВ 1 10 км ясно +16.2 -0.9 31 +17 +20 1017.6 1016.8
12 14.12 СВ 2 10 км ясно +24.5 +6.2 31 +24 +37 комфорт 1017.5 1016.7
15 14.12 С 2 10 км ясно +27.2 +3.9 22 +26 +35 жарко 1014.3 1013.5
18 14.12 СВ 1 10 км ясно +26.1 +2.3 21 +25 +25 комфорт 1014.0 1013.2 +27.8
21 14.12 С 3 10 км ясно +21.0 -0.3 24 +21 +21 комфорт 1016.7 1015.9
00 15.12 С 1 10 км ясно +19.4 +3.9 36 +21 +21 комфорт 1017.1 1016.3
03 15.12 С 2 10 км ясно +17.0 +3.2 40 +17 +17 1016.5 1015.7
06 15.12 СВ 1 10 км ясно +16.5 +2.7 40 +17 +17 1015.9 1015.1 +16.0
09 15.12 СВ 1 10 км 3/0
[Ci sp]
+18.4 +3.9 38 +20 +22 1017.7 1016.9
12 15.12 СВ 2 10 км 3/0
[Ci sp]
+25.7 +3.6 24 +25 +37 комфорт 1017.5 1016.7
15 15.12 СВ 2 10 км 6/0
[Ci sp]
+28.6 +1.0 17 +26 +34 жарко 1014.2 1013.4
18 15.12 СВ 2 10 км 5/0
[Ci sp]
+27.5 +1.2 18 +25 +26 комфорт 1013.2 1012.4 +29.5
21 15.12 СВ 3 10 км ясно +23.4 +1.2 23 +22 +22 комфорт 1015.0 1014.2
00 16.12 СВ 2 10 км ясно +21.2 +1.9 28 +21 +21 комфорт 1016.6 1015.7
03 16.12 СВ 2 10 км ясно +19.0 +2.0 32 +20 +20 1015.4 1014.6
06 16.12 СВ 1 10 км ясно +17.7 +1.8 34 +19 +19 1015.5 1014.7 +17.2
09 16.12 СВ 2 10 км 3/0
[Ci sp]
+18.1 +2.1 34 +19 +21 1017.3 1016.5
12 16.12 СВ 2 10 км 5/0
[Ci sp]
+27.8 +4.8 23 +27 +38 жарко 1017.4 1016.6
15 16.12 СВ 2 10 км 6/0
[Ac As]
+30.0 +2.6 17 +28 +33 жарко 1014.7 1013.9
18 16.12 СВ 1 10 км 5/0
[Ac As Ci sp]
+28.5 +0.3 16 +26 +26 жарко 1014.6 1013.8 +30.5
21 16.12 СВ 2 10 км ясно +24.0 +1.7 23 +23 +23 комфорт 1016.8 1016.0
00 17.12 СВ 1 10 км ясно +22.2 +2.4 27 +22 +22 комфорт 1017.1 1016.3
03 17.12 СВ 1 10 км ясно +19.2 +1.0 30 +21 +21 комфорт 1016.0 1015.2
06 17.12 СВ 2 10 км ясно +19.0 +1.5 31 +20 +20 1015.7 1014.9 +18.8
09 17.12 СВ 1 10 км ясно +18.5 +2.2 34 +20 +23 1016.8 1016.0
12 17.12 СВ 2 10 км 6/0
[Ac trans Ci sp]
+27.5 +3.4 21 +26 +36 жарко 1016.8 1016.0
15 17.12 СВ 3 10 км 6/0
[Ci sp]
+29.0 +1.2 17 +27 +33 жарко 1013.6 1013.0
18 17.12 С 1 10 км 8/0
[Ac cast Ci sp]
+28.0 +4.1 22 +27 +27 жарко 1013.6 1012.0 +30.5
21 17.12 С 2 10 км ясно +24.0 +3.7 27 +24 +24 комфорт 1015.6 1014.8
00 18.12 С 1 10 км ясно +21.0 +4.8 35 +23 +23 комфорт 1015.8 1015.0
03 18.12 С 1 10 км ясно +18.5 +4.6 40 +20 +20 1014.3 1013.5
06 18.12 С 1 10 км ясно +16.6 +6.2 50 +18 +18 1014.5 1013.7 +16.3
09 18.12 С 1 10 км 4/0
[Ci sp]
+19.5 +8.2 48 +21 +24 комфорт 1015.9 1015.1
12 18.12 СВ 2 10 км 4/0
[Ci sp]
+27.5 +6.9 27 +27 +39 жарко 1015.0 1014.2
15 18.12 СВ 3 10 км 4/0
[Ci sp]
+30.5 +4.8 20 +29 +36 жарко 1012.3 1011.5
18 18.12 СВ 1 10 км 6/0
[Ci sp]
+28.2 +5.5 24 +27 +27 жарко 1011.6 1010.8 +31.0
21 18.12 С 2 10 км ясно +24.0 +8.1 36 +24 +24 комфорт 1013.5 1012.7

 

Местоположение метеостанции Podor (Сенегал): широта 16.65 долгота -14.96 высота над уровнем моря 7 м.

В архиве по умолчанию представлена погода в Podor за последнюю неделю. Архивные данные за месяц целиком и за предыдущие месяцы, начиная с января 2011 года, Вы можете получить, выбрав интересующий диапазон дат из раскрывающегося списка и нажав кнопку "Ввод!".

Внимание! Время в таблицах - всемирное. Для получения местного времени необходимо прибавить поправку, которая в Podor равна 0 ч.

Смотрите также архив погоды в соседних городах и на ближайших метеорологических станциях:

Погода в Rosso (Мавритания) (92 км)
Погода в Boutilimit (Мавритания) (102 км)
Погода в Linguere (Сенегал) (142 км)
Погода в Kaedi (Мавритания) (164 км)
Погода в Saint-Louis (Сенегал) (172 км)
Погода в Nouakchott (Мавритания) (192 км)
Погода в Matam (Сенегал) (214 км)
Погода в Diourbel (Сенегал) (261 км)
Погода в Kaolack (Сенегал) (304 км)
Погода в Kauur (Гамбия) (329 км)

Пояснения к столбцам:

Ветер - указаны скорость ветра в м/с - средняя за 10 мин, порывы в срок и между сроками (в фигурных скобках) и направление, откуда дует ветер: С - северный, СВ - северо-восточный, В - восточный, ЮВ - юго-восточный, Ю - южный, ЮЗ - юго-западный, З - западный, СЗ - северо-западный.
Видимость - горизонтальная дальность видимости в метрах или километрах. При видимости от 1 до 10 км при отсутствии осадков обычно наблюдается дымка, при ухудшении видимости до 1 км и менее - туман. В сухую погоду видимость может ухудшаться дымом, пылью или мглою.
Явления - указаны атмосферные явления, наблюдавшиеся в срок или в последний час перед сроком; фигурными скобками обозначены явления, наблюдавшиеся между сроками (за 1-3 часа до срока); квадратными скобками обозначены град или гололедные отложения с указанием их диаметра в мм.
Облачность - указаны через наклонную черту общая и нижняя облачность в баллах и высота нижней границы облаков в метрах; квадратными скобками обозначены формы облаков: Ci - перистые, Cs - перисто-слоистые, Cc - перисто-кучевые, Ac - высококучевые, As - высокослоистые, Sc - слоисто-кучевые, Ns - слоисто-дождевые, Cu - кучевые, Cb - кучево-дождевые. Подробнее классификацию облаков см. в Атласе облаков (PDF).
T - Температура воздуха - температура, измеренная на высоте 2 м над землей.
Td - Температура точки росы - температура, при понижении до которой содержащийся в воздухе водяной пар достигнет насыщения.
f - Относительная влажность воздуха - влажноcть воздуха, измеренная на высоте 2 м над землей.
Te - Эффективная температура - температура, которую ощущает одетый по сезону человек в тени. Характеристика душности погоды. При расчете учитывается влияние влажности воздуха и скорости ветра на теплоощущения человека.
Tes - Эффективная температура на солнце - температура, которую ощущает человек, с поправкой на солнечный нагрев. Характеристика знойности погоды. Зависит от высоты солнца над горизонтом, облачности и скорости ветра. Ночью, в пасмурную погоду, а также при ветре 12 м/с и более поправка равна нулю.
P - Атмосферное давление - приведенное к уровню моря атмосферное давление.
Po - Атмосферное давление - измеренное на уровне метеостанции атмосферное давление.
Tmin - Минимальная температура - минимум температуры воздуха на высоте 2 м над землей.
Tmax - Максимальная температура - максимум температуры воздуха на высоте 2 м над землей.
R - Количество осадков - Количество выпавших осадков за период времени, мм. При наведении курсора мыши на число - период времени, за который выпало указанное количество осадков.
R24 - Количество осадков - Количество выпавших осадков за 24 часа, мм.
S - Снежный покров - Высота снежного покрова, см. При наведении курсора мыши на число - состояние снежного покрова и степень покрытия местности в баллах.